Location: Belfast
(54.5830°N, 5.9330°W)
Time: 04:17:00
(UTC+00:00)

Envisat - Visible Passes

Search period start: 22 January 2018 00:00
Search period end: 01 February 2018 00:00
Orbit: 764 x 766 km, 98.2° (Epoch: 21 January)

Date Brightness Start Highest point End Pass type
(mag) Time Alt. Az. Time Alt. Az. Time Alt. Az.
22 Jan 4.6 17:34:19 10° ENE 17:36:52 14° NE 17:39:25 10° NNE visible
22 Jan 3.0 19:13:23 40° ESE 19:14:56 57° ENE 19:19:56 10° N visible
22 Jan 4.8 20:53:34 26° WSW 20:54:18 27° W 20:58:39 10° NNW visible
23 Jan 6.1 07:13:45 10° ENE 07:15:37 12° E 07:17:30 10° ESE visible
23 Jan 3.7 18:35:58 21° ESE 18:38:25 32° ENE 18:42:56 10° N visible
23 Jan 3.7 20:16:09 42° SW 20:17:18 51° W 20:22:16 10° NNW visible
24 Jan 4.3 17:58:32 10° E 18:02:05 20° NE 18:05:40 10° N visible
24 Jan 2.9 19:38:43 42° SSE 19:40:29 87° ENE 19:45:37 10° NNW visible
24 Jan 5.4 21:18:54 16° WSW 21:20:13 18° W 21:23:39 10° NW visible
25 Jan 5.8 07:38:03 10° NE 07:41:38 19° E 07:45:11 10° SE visible
25 Jan 4.8 17:24:01 10° ENE 17:25:55 12° NE 17:27:50 10° NNE visible
25 Jan 3.2 19:01:17 26° SE 19:03:51 48° ENE 19:08:44 10° N visible
25 Jan 4.5 20:41:28 27° SW 20:43:04 33° W 20:47:39 10° NNW visible
26 Jan 3.9 18:23:50 13° ESE 18:27:23 28° ENE 18:31:40 10° N visible
26 Jan 3.4 20:04:01 34° SSW 20:06:07 61° WSW 20:11:11 10° NNW visible
26 Jan 5.9 21:44:43 10° W 21:46:14 11° W 21:47:44 10° WNW visible
27 Jan 4.4 17:47:54 10° E 17:51:06 17° NE 17:54:19 10° N visible
27 Jan 2.8 19:26:35 27° SSE 19:29:21 73° ENE 19:34:27 10° NNW visible
27 Jan 5.2 21:06:46 17° WSW 21:08:56 21° W 21:12:49 10° NW visible
28 Jan 5.9 07:27:18 10° NE 07:30:20 16° E 07:33:22 10° ESE visible
28 Jan 3.4 18:49:06 16° SE 18:52:46 41° ENE 18:57:32 10° N visible
28 Jan 4.2 20:29:18 24° SSW 20:31:51 39° W 20:36:38 10° NNW visible
29 Jan 4.0 18:12:21 10° ESE 18:16:22 24° NE 18:20:23 10° N visible
29 Jan 3.1 19:51:50 24° S 19:54:57 74° WSW 20:00:04 10° NNW visible
29 Jan 5.8 21:32:21 10° WSW 21:34:55 14° W 21:37:28 10° NW visible
30 Jan 4.6 17:37:23 10° E 17:40:08 15° NE 17:42:54 10° NNE visible
30 Jan 2.9 19:14:21 17° SE 19:18:15 61° ENE 19:23:17 10° N visible
30 Jan 5.0 20:54:32 15° SW 20:57:40 26° W 21:01:54 10° NW visible
31 Jan 6.1 07:16:44 10° NE 07:19:02 13° E 07:21:19 10° ESE visible
31 Jan 3.6 18:37:10 10° SE 18:41:43 35° ENE 18:46:18 10° N visible
31 Jan 3.9 20:17:03 18° SSW 20:20:39 47° W 20:25:35 10° NNW visible
